[[{"header":{"parameterUnit":"m.s-1","parameterCategory":1,"la1":30.2991,"la2":30.254,"lo1":-89.0895,"lo2":-89.0444,"dy":0.0017,"dx":0.0017,"nx":28,"ny":28,"refTime":"2025-01-10T09:00:00:Z","depth":0,"parameterNumber":2,"parameterNumberName":"U-component_of_WINDS"},"data":[0,0,0,0,0,0,0,0,0,0,0,0,0,0,0,0,0,0,0,0,0,0,0,0,0,0,0,0,0,0,0,0,0,0,0,0,0,0,0,0,0,0,0,0,0,0,0,0,0,0,0,0,0,0,0,0,0,0,2.6371,2.6371,0,2.638,2.638,2.638,2.6341,2.634,2.6339,2.6338,2.6346,2.6347,2.6348,0,0,0,0,0,0,0,0,0,0,0,0,0,2.6322,2.6323,2.6371,2.6371,2.6372,2.638,2.638,2.638,2.6341,2.634,2.6338,2.6337,2.6345,2.6347,2.6348,0,0,0,0,0,0,0,0,0,0,0,0,0,2.6338,2.6324,2.6371,2.6353,2.6352,2.638,2.638,2.638,2.6341,2.634,2.6338,2.6336,2.6345,2.6347,2.6349,2.6394,0,0,2.6354,2.6355,0,0,0,0,0,0,0,0,2.6338,2.634,2.6356,2.6354,2.6353,2.6358,2.6366,2.6385,2.6342,2.6345,2.6337,2.6336,2.6351,2.6352,2.6358,2.6395,2.6395,2.6355,2.6356,2.6357,2.6357,0,0,0,0,0,0,0,2.6337,2.634,2.6375,2.6356,2.6354,2.6345,2.6345,2.6369,2.6358,2.6345,2.6342,2.6344,2.635,2.6356,2.6357,2.6395,2.6355,2.6356,2.6357,2.6358,2.6472,2.6474,0,0,0,0,0,0,2.6338,2.6339,2.6374,2.6375,2.6341,2.6347,2.6348,2.6358,2.6357,2.6355,2.6345,2.6342,2.6353,2.6355,2.6358,2.6412,2.6357,2.6358,2.6359,2.647,2.6472,2.6474,0,0,0,0,0,0,2.6337,2.6341,2.6374,2.6356,2.636,2.635,2.6362,2.6359,2.6365,2.6357,2.6355,2.6353,2.6352,2.6355,2.6386,2.6411,2.6359,2.6361,2.6468,2.6471,2.6473,2.652,0,0,0,0,0,0,2.6336,2.6341,2.6358,2.6357,2.6361,2.6402,2.6363,2.636,2.6368,2.6364,2.6364,2.6363,2.6351,2.6383,2.6388,2.6413,2.6362,2.6465,2.6469,2.6472,2.6516,2.6524,2.6531,0,0,0,0,0,2.6334,2.6371,2.6359,2.6364,2.6382,2.6404,2.6406,2.6391,2.637,2.6388,2.6383,2.6363,2.6408,2.6387,2.6391,2.6418,2.6464,2.6468,2.6472,2.6513,2.6523,2.6531,0,0,0,0,0,0,2.6375,2.637,2.6357,2.6395,2.64,2.6397,2.6418,2.6402,2.6413,2.6409,2.6391,2.6391,2.6425,2.6425,2.6401,2.6463,2.6432,2.6438,2.6462,2.6471,2.6478,2.6477,2.6364,0,0,0,0,0,2.6388,2.6406,2.6401,2.6435,2.6438,2.6428,2.6437,2.6426,2.643,2.6432,2.6429,2.6435,2.645,2.6461,2.6474,2.6516,2.6516,2.6537,2.6544,2.6551,2.6555,2.6578,2.6587,2.6488,2.6488,2.6488,0,0,2.6416,2.6416,2.6428,2.6443,2.6445,2.6465,2.643,2.6451,2.6465,2.6435,2.6464,2.6463,2.6468,2.6505,2.6521,2.6505,2.6583,2.6556,2.6561,2.6562,2.6583,2.6593,2.6601,2.6491,2.649,2.649,0,0,2.6476,2.6477,2.6506,2.651,2.6514,2.6508,2.6515,2.6515,2.6513,2.6542,2.652,2.6537,2.6563,2.6568,2.6574,2.6638,2.662,2.6643,2.6681,2.6704,2.6712,2.6718,2.6741,2.675,2.6648,2.6648,2.6648,0,2.6509,2.6537,2.6522,2.6546,2.6553,2.6528,2.6557,2.6561,2.657,2.6576,2.6559,2.6593,2.6594,2.6632,2.6648,2.6654,2.6661,2.6642,2.6712,2.6718,2.6725,2.6746,2.6755,2.6651,2.665,2.665,2.665,0,2.6578,2.6598,2.6621,2.6631,2.6641,2.6667,2.6657,2.6669,2.6658,2.6653,2.6684,2.6685,2.6699,2.6707,2.6696,2.6744,2.6734,2.6715,2.6683,2.6737,2.6757,2.6765,2.6655,2.6654,2.6653,2.6652,0,0,2.6662,2.6665,2.6674,2.6679,2.6683,2.6698,2.6724,2.6738,2.6749,2.6757,2.6778,2.6802,2.6784,2.6791,2.678,2.68,2.6852,2.6779,2.6778,2.6792,2.6905,2.6919,2.6929,2.684,2.6842,2.6843,2.6905,0,2.6721,2.6765,2.6753,2.6796,2.6815,2.6792,2.6814,2.682,2.6817,2.6832,2.6829,2.6846,2.6822,2.6826,2.6845,2.6841,2.6874,2.6837,2.686,2.6861,2.6858,2.694,2.6954,2.7013,2.6913,2.6914,2.6915,0,2.6795,2.6806,2.6852,2.6854,2.6862,2.6882,2.6895,2.691,2.6916,2.6912,2.6921,2.6907,2.6932,2.6902,2.6938,2.6913,2.6922,2.6922,2.6924,2.6924,2.689,2.6942,2.7031,2.7039,2.6927,2.6926,2.6925,0,2.6852,2.6879,2.6909,2.6914,2.6918,2.6933,2.6935,2.694,2.6949,2.6961,2.6967,2.6981,2.6989,2.7,2.699,2.6969,2.7028,2.6996,2.7025,2.7026,2.7038,2.7037,2.7128,2.7045,2.7045,2.7044,2.7044,0,2.6918,2.6947,2.6935,2.6954,2.6986,2.6973,2.7005,2.7004,2.7009,2.7028,2.7009,2.7027,2.7013,2.703,2.7023,2.7054,2.7057,2.7055,2.7053,2.7057,2.7057,2.7062,2.7057,2.7047,2.7046,2.7046,2.7045,0,2.6986,2.698,2.7012,2.7013,2.7014,2.7038,2.7039,2.7057,2.7053,2.7077,2.7082,2.7076,2.7096,2.7088,2.7108,2.7103,2.7142,2.7135,2.714,2.7138,2.7167,2.7165,2.7264,2.7277,2.7186,2.7187,2.7187,0,2.7029,2.705,2.7055,2.7066,2.707,2.7089,2.7099,2.7087,2.7099,2.7108,2.7125,2.7143,2.7156,2.7189,2.7186,2.7202,2.7194,2.7228,2.7196,2.72,2.7194,2.7193,2.7195,2.7234,2.7235,2.7236,2.7237,0,2.7105,2.7101,2.7116,2.7131,2.7144,2.7155,2.7164,2.7175,2.7164,2.7178,2.7198,2.7208,2.723,2.7248,2.7262,2.7264,2.7249,2.7247,2.7255,2.7258,2.7261,2.726,2.7157,2.7245,2.7244,2.7243,2.7243,2.7242,2.7161,2.718,2.7186,2.7204,2.721,2.722,2.7237,2.7236,2.7252,2.7269,2.7262,2.7285,2.7292,2.7309,2.7314,2.7332,2.7319,2.733,2.7332,2.7335,2.7339,2.7259,2.7335,2.7335,2.7334,2.7334,2.7334,0,2.7236,2.724,2.7257,2.7271,2.7285,2.7271,2.7281,2.7294,2.7314,2.7322,2.7336,2.736,2.7378,2.7377,2.7394,2.7409,2.7402,2.7414,2.7412,2.7413,2.735,2.7342,2.7419,2.7419,2.7419,2.7419,2.7419,2.7419,2.7277,2.7308,2.7305,2.7339,2.7342,2.7365,2.7372,2.7381,2.7387,2.7414,2.7429,2.7429,2.7434,2.7451,2.7467,2.7467,2.7474,2.7488,2.7485,2.7426,2.7417,2.7409,2.7401,2.7489,2.749,2.7546,2.7547,2.7547]},{"header":{"parameterUnit":"m.s-1","parameterCategory":1,"la1":30.2991,"la2":30.254,"lo1":-89.0895,"lo2":-89.0444,"dy":0.0017,"dx":0.0017,"nx":28,"ny":28,"refTime":"2025-01-10T09:00:00:Z","depth":0,"parameterNumber":3,"parameterNumberName":"V-component_of_WINDS"},"data":[0,0,0,0,0,0,0,0,0,0,0,0,0,0,0,0,0,0,0,0,0,0,0,0,0,0,0,0,0,0,0,0,0,0,0,0,0,0,0,0,0,0,0,0,0,0,0,0,0,0,0,0,0,0,0,0,0,0,-5.2776,-5.2779,0,-5.2983,-5.2985,-5.2987,-5.2975,-5.2972,-5.2969,-5.2966,-5.3176,-5.3184,-5.3193,0,0,0,0,0,0,0,0,0,0,0,0,0,-5.237,-5.2378,-5.2776,-5.2779,-5.2781,-5.2982,-5.2985,-5.2988,-5.2975,-5.2972,-5.2968,-5.2965,-5.3174,-5.3183,-5.3193,0,0,0,0,0,0,0,0,0,0,0,0,0,-5.2558,-5.238,-5.2776,-5.2799,-5.2803,-5.2982,-5.2985,-5.2989,-5.2976,-5.2972,-5.2967,-5.2963,-5.317,-5.3182,-5.3195,-5.3363,0,0,-5.3233,-5.3239,0,0,0,0,0,0,0,0,-5.2548,-5.2573,-5.2793,-5.2798,-5.2803,-5.2948,-5.2919,-5.3114,-5.2977,-5.2911,-5.2966,-5.2961,-5.3104,-5.3122,-5.317,-5.3373,-5.3382,-5.3234,-5.3242,-5.3248,-5.3251,0,0,0,0,0,0,0,-5.2535,-5.2564,-5.2858,-5.2796,-5.2802,-5.2799,-5.2821,-5.2956,-5.303,-5.2916,-5.2916,-5.294,-5.3106,-5.3158,-5.3175,-5.3385,-5.3234,-5.3245,-5.3253,-5.3258,-5.3735,-5.374,0,0,0,0,0,0,-5.2517,-5.2554,-5.2851,-5.2864,-5.2662,-5.281,-5.2835,-5.2906,-5.3029,-5.3043,-5.2944,-5.2939,-5.3139,-5.3161,-5.3183,-5.3388,-5.3247,-5.3259,-5.3266,-5.373,-5.3736,-5.3742,0,0,0,0,0,0,-5.2508,-5.2543,-5.2843,-5.2709,-5.2747,-5.2822,-5.2903,-5.2913,-5.2965,-5.305,-5.3063,-5.2984,-5.3136,-5.3165,-5.3318,-5.3395,-5.3265,-5.3276,-5.3724,-5.3732,-5.3739,-5.3799,0,0,0,0,0,0,-5.2496,-5.254,-5.2605,-5.271,-5.2754,-5.2976,-5.2907,-5.292,-5.2987,-5.2983,-5.3091,-5.3104,-5.3135,-5.33,-5.3331,-5.341,-5.3286,-5.3718,-5.3728,-5.3737,-5.379,-5.3808,-5.3822,0,0,0,0,0,-5.2482,-5.2613,-5.2608,-5.2644,-5.2837,-5.298,-5.3005,-5.3038,-5.2993,-5.3059,-5.3113,-5.3101,-5.3381,-5.3315,-5.335,-5.3434,-5.3713,-5.3725,-5.3736,-5.3783,-5.3804,-5.3822,0,0,0,0,0,0,-5.2515,-5.2627,-5.2623,-5.2793,-5.2877,-5.2978,-5.3062,-5.3059,-5.3158,-5.3149,-5.3185,-5.321,-5.3364,-5.3414,-5.3339,-5.3603,-5.3541,-5.356,-5.3565,-5.3586,-5.3601,-5.3586,-5.3297,0,0,0,0,0,-5.2541,-5.2649,-5.2742,-5.2882,-5.2925,-5.2986,-5.305,-5.3068,-5.3156,-5.3192,-5.3257,-5.3343,-5.3451,-5.3521,-5.3624,-5.3797,-5.3821,-5.3872,-5.3888,-5.3901,-5.3917,-5.4013,-5.4037,-5.378,-5.378,-5.378,0,0,-5.2598,-5.2673,-5.2739,-5.2891,-5.2958,-5.3068,-5.3016,-5.3135,-5.3217,-5.321,-5.3359,-5.341,-5.3508,-5.3672,-5.3748,-5.3719,-5.3993,-5.3916,-5.3925,-5.3935,-5.4027,-5.4051,-5.4073,-5.3788,-5.3786,-5.3785,0,0,-5.2758,-5.2825,-5.295,-5.3019,-5.3122,-5.3162,-5.3192,-5.3293,-5.3327,-5.3477,-5.3474,-5.3572,-5.3757,-5.3827,-5.3887,-5.4074,-5.4066,-5.4106,-5.419,-5.4283,-5.4303,-5.4321,-5.4388,-5.4412,-5.4122,-5.4122,-5.4122,0,-5.2816,-5.2982,-5.3015,-5.3135,-5.3202,-5.3201,-5.3327,-5.3392,-5.3523,-5.3569,-5.3535,-5.3767,-5.3833,-5.4014,-5.4059,-5.4108,-5.4143,-5.4094,-5.4297,-5.4316,-5.4333,-5.4398,-5.4423,-5.4126,-5.4126,-5.4126,-5.4125,0,-5.3048,-5.3163,-5.3252,-5.3379,-5.3456,-5.3578,-5.3629,-5.3703,-5.3715,-5.3758,-5.3911,-5.399,-5.411,-5.4154,-5.4166,-5.4337,-5.4316,-5.4289,-5.4228,-5.4362,-5.4423,-5.4448,-5.4133,-5.4131,-5.413,-5.4129,0,0,-5.3235,-5.3378,-5.341,-5.3468,-5.3582,-5.3672,-5.3794,-5.3912,-5.3974,-5.4065,-5.4169,-5.4325,-5.4301,-5.4369,-5.4389,-5.447,-5.4614,-5.4434,-5.4436,-5.4465,-5.4807,-5.4827,-5.4855,-5.4609,-5.4614,-5.4618,-5.4799,0,-5.3406,-5.3624,-5.3657,-5.3849,-5.3956,-5.3957,-5.4063,-5.4144,-5.4188,-5.4285,-5.4333,-5.4443,-5.4403,-5.4445,-5.4525,-5.4579,-5.4683,-5.4566,-5.4706,-5.471,-5.4682,-5.4887,-5.4908,-5.5076,-5.4823,-5.4827,-5.483,0,-5.3636,-5.3734,-5.3936,-5.4035,-5.4082,-5.4177,-5.4288,-5.438,-5.4472,-5.4498,-5.4574,-5.4585,-5.4711,-5.4644,-5.4819,-5.4739,-5.4798,-5.4833,-5.4841,-5.4855,-5.4779,-5.4908,-5.513,-5.5155,-5.4868,-5.4865,-5.4862,0,-5.3753,-5.3934,-5.4079,-5.4129,-5.4248,-5.4315,-5.4368,-5.4455,-5.4524,-5.462,-5.4665,-5.4775,-5.4835,-5.492,-5.4959,-5.4906,-5.5132,-5.5068,-5.5157,-5.5157,-5.5205,-5.5202,-5.5441,-5.5242,-5.5242,-5.5241,-5.5241,0,-5.3942,-5.4066,-5.4133,-5.4222,-5.4361,-5.4398,-5.4534,-5.4585,-5.4663,-5.4761,-5.4768,-5.486,-5.4907,-5.5006,-5.5038,-5.5178,-5.5205,-5.523,-5.5237,-5.523,-5.5227,-5.5269,-5.5259,-5.5248,-5.5247,-5.5245,-5.5244,0,-5.4096,-5.4146,-5.4304,-5.4404,-5.4432,-5.453,-5.4615,-5.4702,-5.4745,-5.487,-5.4901,-5.4969,-5.5086,-5.5134,-5.5277,-5.5298,-5.5461,-5.5458,-5.543,-5.5432,-5.5519,-5.5511,-5.5795,-5.5834,-5.5609,-5.5611,-5.5612,0,-5.4213,-5.4309,-5.4419,-5.4486,-5.4541,-5.4649,-5.4719,-5.4758,-5.4831,-5.4943,-5.5016,-5.5134,-5.523,-5.5417,-5.5479,-5.5589,-5.559,-5.5682,-5.5606,-5.5596,-5.5592,-5.5586,-5.5596,-5.5695,-5.5698,-5.57,-5.5701,0,-5.4417,-5.4437,-5.4539,-5.4649,-5.4733,-5.4822,-5.4908,-5.4962,-5.5015,-5.5096,-5.5217,-5.5291,-5.5438,-5.5555,-5.5668,-5.5722,-5.5721,-5.5724,-5.5751,-5.5745,-5.5725,-5.5738,-5.5468,-5.5718,-5.5716,-5.5715,-5.5714,-5.5713,-5.4557,-5.4642,-5.4734,-5.4846,-5.4915,-5.4996,-5.5082,-5.5136,-5.5238,-5.5361,-5.5378,-5.5507,-5.5596,-5.5748,-5.5807,-5.5908,-5.5884,-5.5923,-5.5933,-5.5942,-5.5948,-5.5708,-5.5929,-5.5928,-5.5928,-5.5928,-5.5927,0,-5.4762,-5.4821,-5.4924,-5.5045,-5.5134,-5.5125,-5.522,-5.5295,-5.5408,-5.5492,-5.5586,-5.5725,-5.5838,-5.5909,-5.6023,-5.609,-5.6093,-5.6119,-5.6115,-5.6127,-5.5963,-5.5928,-5.6115,-5.6115,-5.6115,-5.6115,-5.6115,-5.6115,-5.4879,-5.5023,-5.5054,-5.5232,-5.5289,-5.5416,-5.5472,-5.5546,-5.5613,-5.5768,-5.5862,-5.5907,-5.5986,-5.6105,-5.6209,-5.6227,-5.6268,-5.6297,-5.6313,-5.6158,-5.6139,-5.612,-5.6088,-5.6305,-5.6306,-5.6469,-5.6471,-5.6472]}]]